| time (UTC) | temp F | wind direction | speed knots | gust knots | rain 1hr in | rain 24hr in | rain mn in | humidity % | barometer mb |
| 20260504224535 | 70 | 252 | 1.7 | 7.8 | 0.00 | 0.00 | 0.00 | 37 | 1006.4 |
| 20260504223044 | 71 | 269 | 2.6 | 8.7 | 0.00 | 0.00 | 0.00 | 34 | 1006.2 |
| 20260504221540 | 71 | 269 | 0.9 | 8.7 | 0.00 | 0.00 | 0.00 | 33 | 1006.0 |
| 20260504220040 | 71 | 168 | 3.5 | 11.3 | 0.00 | 0.00 | 0.00 | 33 | 1006.1 |
| 20260504214538 | 71 | 187 | 2.6 | 8.7 | 0.00 | 0.00 | 0.00 | 33 | 1006.1 |
| 20260504213054 | 73 | 315 | 2.6 | 9.6 | 0.00 | 0.00 | 0.00 | 33 | 1006.2 |
| 20260504211537 | 73 | 334 | 2.6 | 9.6 | 0.00 | 0.00 | 0.00 | 32 | 1006.2 |
| 20260504210041 | 72 | 205 | 3.5 | 8.7 | 0.00 | 0.00 | 0.00 | 32 | 1006.0 |
| 20260504204539 | 72 | 252 | 2.6 | 6.1 | 0.00 | 0.00 | 0.00 | 32 | 1006.1 |
| 20260504203038 | 71 | 277 | 3.5 | 13.9 | 0.00 | 0.00 | 0.00 | 32 | 1006.1 |
| 20260504201538 | 71 | 238 | 5.2 | 10.4 | 0.00 | 0.00 | 0.00 | 32 | 1006.1 |
| 20260504200036 | 74 | 279 | 5.2 | 11.3 | 0.00 | 0.00 | 0.00 | 30 | 1006.1 |
| 20260504194556 | 73 | 135 | 3.5 | 11.3 | 0.00 | 0.00 | 0.00 | 32 | 1006.2 |
| 20260504193051 | 73 | 277 | 3.5 | 15.6 | 0.00 | 0.00 | 0.00 | 29 | 1006.2 |
| 20260504191539 | 72 | 330 | 3.5 | 14.8 | 0.00 | 0.00 | 0.00 | 32 | 1006.3 |
| 20260504190041 | 72 | 227 | 5.2 | 10.4 | 0.00 | 0.00 | 0.00 | 29 | 1006.4 |
| 20260504184543 | 72 | 333 | 5.2 | 12.2 | 0.00 | 0.00 | 0.00 | 29 | 1006.8 |
| 20260504183042 | 72 | 244 | 2.6 | 13.9 | 0.00 | 0.00 | 0.00 | 31 | 1006.8 |
| 20260504181542 | 71 | 229 | 4.3 | 13.0 | 0.00 | 0.00 | 0.00 | 30 | 1006.9 |
| 20260504180039 | 71 | 248 | 5.2 | 11.3 | 0.00 | 0.00 | 0.00 | 31 | 1007.0 |
| 20260504174538 | 70 | 231 | 3.5 | 13.9 | 0.00 | 0.00 | 0.00 | 33 | 1007.2 |
| 20260504173049 | 70 | 179 | 4.3 | 14.8 | 0.00 | 0.00 | 0.00 | 31 | 1007.2 |
| 20260504171536 | 69 | 343 | 5.2 | 14.8 | 0.00 | 0.00 | 0.00 | 31 | 1007.2 |
| 20260504081541 | 41 | 0 | 0.0 | 0.0 | 0.00 | 0.00 | 0.00 | 76 | 1009.8 |
| 20260504044551 | 33 | 0 | 0.0 | 0.0 | 0.00 | 0.00 | 0.00 | 89 | 1009.9 |
| 20260504043044 | 32 | 0 | 0.0 | 0.0 | 0.00 | 0.00 | 0.00 | 87 | 1009.9 |
| 20260504041540 | 32 | 0 | 0.0 | 0.0 | 0.00 | 0.00 | 0.00 | 86 | 1009.7 |
| 20260504040040 | 33 | 0 | 0.0 | 0.0 | 0.00 | 0.00 | 0.00 | 85 | 1009.6 |
| 20260504034547 | 33 | 0 | 0.0 | 0.0 | 0.00 | 0.00 | 0.00 | 84 | 1009.6 |
| 20260504033049 | 33 | 0 | 0.0 | 0.0 | 0.00 | 0.00 | 0.00 | 83 | 1009.5 |
| 20260504031536 | 34 | 0 | 0.0 | 0.0 | 0.00 | 0.00 | 0.00 | 82 | 1009.5 |
| 20260504030041 | 34 | 0 | 0.0 | 0.0 | 0.00 | 0.00 | 0.00 | 82 | 1009.5 |
| 20260504024545 | 35 | 0 | 0.0 | 0.0 | 0.00 | 0.00 | 0.00 | 81 | 1009.4 |
| 20260504023039 | 36 | 0 | 0.0 | 0.0 | 0.00 | 0.00 | 0.00 | 79 | 1009.4 |
| 20260504021538 | 37 | 0 | 0.0 | 0.0 | 0.00 | 0.00 | 0.00 | 77 | 1009.4 |
| 20260504020036 | 38 | 0 | 0.0 | 0.0 | 0.00 | 0.00 | 0.00 | 75 | 1009.3 |
| 20260504014536 | 39 | 0 | 0.0 | 0.0 | 0.00 | 0.00 | 0.00 | 74 | 1009.2 |
| 20260504013048 | 40 | 0 | 0.0 | 0.0 | 0.00 | 0.00 | 0.00 | 69 | 1009.0 |
| 20260504011540 | 41 | 0 | 0.0 | 0.0 | 0.00 | 0.00 | 0.00 | 67 | 1008.9 |
| 20260504010051 | 42 | 0 | 0.0 | 0.0 | 0.00 | 0.00 | 0.00 | 66 | 1008.7 |
| 20260504004541 | 42 | 0 | 0.0 | 0.0 | 0.00 | 0.00 | 0.00 | 64 | 1008.6 |
| 20260504003037 | 43 | 0 | 0.0 | 0.0 | 0.00 | 0.00 | 0.00 | 62 | 1008.3 |
| 20260504001546 | 45 | 0 | 0.0 | 0.9 | 0.00 | 0.00 | 0.00 | 58 | 1008.2 |
| 20260504000039 | 47 | 0 | 0.0 | 0.9 | 0.00 | 0.00 | 0.00 | 54 | 1008.1 |
| 20260503234541 | 49 | 0 | 0.0 | 1.7 | 0.00 | 0.00 | 0.00 | 49 | 1007.9 |
| 20260503233038 | 50 | 0 | 0.0 | 3.5 | 0.00 | 0.00 | 0.00 | 45 | 1007.8 |
| 20260503231536 | 50 | 0 | 0.9 | 5.2 | 0.00 | 0.00 | 0.00 | 44 | 1007.7 |
| 20260503230036 | 51 | 0 | 0.9 | 5.2 | 0.00 | 0.00 | 0.00 | 44 | 1007.6 |